Location: Basse Occidentale du Courleau
(48.3833°N, 4.8333°W)
Time: 08:53:40
(UTC+00:00)

Cosmos 1844 - Pass Details

Date: 05 July 2020
Orbit: 822 x 868 km, 70.9° (Epoch: 07 August)

Event Time Altitude Azimuth Distance (km) Brightness Sun altitude
Rises 21:58:41 0° 328° (NNW) 3,460 9.1 -11.9°
Reaches altitude 10° 22:01:14 10° 323° (NW) 2,515 7.7 -12.1°
Maximum altitude 22:06:45 48° 251° (WSW) 1,117 4.4 -12.6°
Enters shadow 22:11:36 13° 180° (S) 2,267 5.4 -13.0°
